Location: Gleizolles
(44.4833°N, 6.7667°E)
Time: 09:21:06
(UTC+00:00)

CUTE 1.7 + AOD 2 - Pass Details

Date: 14 May 2021
Orbit: 593 x 611 km, 97.6° (Epoch: 21 June)

Event Time Altitude Azimuth Distance (km) Brightness Sun altitude
Rises 03:24:18 0° 22° (NNE) 2,842 ? -7.3°
Reaches altitude 10° 03:26:41 10° 33° (NNE) 1,934 ? -6.9°
Maximum altitude 03:30:26 31° 96° (E) 1,044 ? -6.4°
Drops below altitude 10° 03:34:10 10° 160° (SSE) 1,922 ? -5.8°
Sets 03:36:31 0° 170° (S) 2,820 ? -5.5°
